| time (UTC) | temp F | wind direction | speed MPH | gust MPH | rain 1hr in | rain 24hr in | rain mn in | humidity % | barometer mb |
| 20260902210805 | 54 | 3 | 0.0 | 1.0 | 0.00 | 0.20 | 0.00 | 72 | 1006.9 |
| 20260902200305 | 53 | 32 | 0.0 | 5.0 | 0.00 | 0.20 | 0.00 | 74 | 1006.8 |
| 20260902190805 | 52 | 118 | 0.0 | 0.0 | 0.00 | 0.20 | 0.00 | 80 | 1007.0 |
| 20260902190305 | 51 | 118 | 1.0 | 6.0 | 0.00 | 0.20 | 0.00 | 78 | 1007.0 |
| 20260902180806 | 49 | 274 | 5.0 | 6.0 | 0.00 | 0.20 | 0.00 | 85 | 1007.3 |
| 20260902180305 | 49 | 296 | 3.0 | 6.0 | 0.00 | 0.20 | 0.00 | 83 | 1007.4 |
| 20260902170805 | 47 | 34 | 0.0 | 0.0 | 0.00 | 0.20 | 0.00 | 93 | 1007.4 |
| 20260902170306 | 47 | 34 | 0.0 | 5.0 | 0.00 | 0.20 | 0.00 | 88 | 1007.4 |
| 20260902160805 | 44 | 263 | 3.0 | 3.0 | 0.00 | 0.20 | 0.00 | 99 | 1007.4 |
| 20260902160304 | 44 | 268 | 2.0 | 5.0 | 0.00 | 0.20 | 0.00 | 99 | 1007.4 |
| 20260902150805 | 43 | 271 | 3.0 | 5.0 | 0.00 | 0.20 | 0.00 | 99 | 1007.4 |
| 20260902150306 | 43 | 259 | 3.0 | 5.0 | 0.00 | 0.20 | 0.00 | 99 | 1007.4 |
| 20260902140804 | 43 | 267 | 5.0 | 5.0 | 0.00 | 0.20 | 0.00 | 99 | 1007.3 |
| 20260902140305 | 43 | 273 | 5.0 | 5.0 | 0.00 | 0.20 | 0.00 | 98 | 1007.3 |
| 20260902130804 | 43 | 275 | 5.0 | 5.0 | 0.00 | 0.20 | 0.00 | 98 | 1007.2 |
| 20260902130305 | 43 | 275 | 5.0 | 5.0 | 0.00 | 0.20 | 0.00 | 99 | 1007.2 |
| 20260902120805 | 43 | 275 | 3.0 | 5.0 | 0.00 | 0.20 | 0.00 | 98 | 1007.0 |
| 20260902120305 | 43 | 275 | 3.0 | 5.0 | 0.00 | 0.20 | 0.00 | 98 | 1007.0 |
| 20260902110804 | 44 | 270 | 3.0 | 5.0 | 0.00 | 0.20 | 0.00 | 98 | 1006.9 |
| 20260902110305 | 44 | 272 | 3.0 | 5.0 | 0.00 | 0.20 | 0.00 | 98 | 1006.9 |
| 20260902100306 | 45 | 271 | 3.0 | 5.0 | 0.00 | 0.20 | 0.00 | 98 | 1006.8 |
| 20260902090805 | 45 | 269 | 2.0 | 3.0 | 0.00 | 0.20 | 0.00 | 98 | 1006.7 |
| 20260902090306 | 45 | 268 | 2.0 | 3.0 | 0.00 | 0.20 | 0.00 | 98 | 1006.7 |
| 20260902080805 | 46 | 258 | 2.0 | 2.0 | 0.00 | 0.20 | 0.00 | 98 | 1006.6 |
| 20260902080305 | 46 | 261 | 2.0 | 3.0 | 0.00 | 0.20 | 0.00 | 98 | 1006.7 |
| 20260902070813 | 46 | 252 | 2.0 | 2.0 | 0.10 | 0.20 | 0.00 | 98 | 1006.5 |
| 20260902070305 | 46 | 253 | 2.0 | 3.0 | 0.10 | 0.20 | 0.00 | 98 | 1006.5 |
| 20260902060306 | 46 | 249 | 2.0 | 3.0 | 0.00 | 0.10 | 0.10 | 98 | 1006.6 |
| 20260902050804 | 46 | 248 | 1.0 | 2.0 | 0.00 | 0.10 | 0.10 | 98 | 1006.4 |
| 20260902050304 | 46 | 258 | 2.0 | 2.0 | 0.00 | 0.10 | 0.10 | 98 | 1006.3 |
| 20260902040805 | 47 | 227 | 1.0 | 2.0 | 0.00 | 0.10 | 0.10 | 99 | 1006.1 |
| 20260902040305 | 47 | 307 | 0.0 | 3.0 | 0.00 | 0.10 | 0.10 | 98 | 1006.1 |
| 20260902030805 | 47 | 23 | 2.0 | 2.0 | 0.00 | 0.10 | 0.10 | 99 | 1005.8 |
| 20260902030304 | 47 | 20 | 2.0 | 3.0 | 0.00 | 0.10 | 0.10 | 98 | 1005.7 |
| 20260902020804 | 48 | 20 | 2.0 | 3.0 | 0.00 | 0.10 | 0.10 | 98 | 1005.5 |
| 20260902010805 | 48 | 358 | 2.0 | 3.0 | 0.05 | 0.10 | 0.10 | 96 | 1005.2 |
| 20260902010305 | 48 | 14 | 2.0 | 6.0 | 0.05 | 0.10 | 0.10 | 95 | 1005.1 |
| 20260902000805 | 50 | 284 | 3.0 | 5.0 | 0.05 | 0.05 | 0.05 | 93 | 1004.7 |
| 20260902000304 | 50 | 273 | 5.0 | 6.0 | 0.05 | 0.05 | 0.05 | 93 | 1004.7 |
| 20260901230805 | 56 | 244 | 1.0 | 3.0 | 0.00 | 0.00 | 0.00 | 65 | 1004.2 |
| 20260901230305 | 55 | 295 | 1.0 | 7.0 | 0.00 | 0.00 | 0.00 | 65 | 1004.2 |
| 20260901220305 | 53 | 268 | 2.0 | 9.0 | 0.00 | 0.00 | 0.00 | 73 | 1004.4 |